Tracking 29892 objects as of 21-Nov-2024
HD Live streaming from Space Station
objects crossing your sky now

CZ-6A DEB

Track CZ-6A DEB now!
10-day predictions


NORAD ID: 55522
Int'l Code: 2022-151XU
Perigee: 670.9 km
Apogee: 796.5 km
Inclination: 98.6 °
Period: 99.3 minutes
Semi major axis: 7104 km
RCS: Unknown
Launch date: November 11, 2022
Source: People's Republic of China (PRC)
Launch site: Taiyaun Space Center, China (TSC)

Note: This is SATELLITE DEBRIS
Your satellite tracking list
Your tracking list is empty




NASA's NSSDC Master Catalog

Two Line Element Set (TLE):
1 55522U 22151XU  24325.52107894  .00016541  00000-0  40911-2 0  9996
2 55522  98.6432 347.7954 0088385 269.0619  90.0447 14.49714599101006
Source of the keplerian elements: AFSPC